Fredericksburg, Texas, United States (78624)
Lat: 30.27N, Lon: 98.87W
Wx Zone: TXZ188
Local Info
Past Weather Observations for Today

NOTE: This archive is for the closest National Weather Service station to Fredericksburg. Information may differ from the station used for current weather conditions.

Click here for Long-term Archive

Time Weather Temperature Dewpoint Humidity Pressure Winds Precip Visibility
10:15
Overcast
Fog
52°F / 11°C 50°F / 10°C 94% 29.98 in
(1015 mb)
SSE 3.5 mph
(SSE 6 kph)
- 1/2SM
09:55
Overcast
Fog And Mist
50°F / 10°C 50°F / 10°C 100% 29.98 in
(1015 mb)
Calm - 3/4SM
09:35
Overcast
Fog
48°F / 9°C 46°F / 8°C 94% 29.98 in
(1015 mb)
Calm - 1/4SM
09:15
Overcast
Fog
46°F / 8°C 46°F / 8°C 100% 29.98 in
(1015 mb)
Calm - 1/4SM
08:55
Overcast
Fog
45°F / 7°C 45°F / 7°C 100% 29.98 in
(1015 mb)
Calm - 1/4SM
08:35
Overcast
Fog
45°F / 7°C 45°F / 7°C 100% 30.01 in
(1016 mb)
Calm - 1/4SM
08:15
Overcast
Fog
45°F / 7°C 43°F / 6°C 93% 30.01 in
(1016 mb)
Calm - 1/2SM
07:55
Overcast
Fog And Mist
43°F / 6°C 43°F / 6°C 100% 30.01 in
(1016 mb)
Calm - 1SM
07:35
Overcast
Fog
43°F / 6°C 43°F / 6°C 100% 30.01 in
(1016 mb)
Calm - 1/2SM
07:15
Overcast
Fog And Mist
43°F / 6°C 43°F / 6°C 100% 30.01 in
(1016 mb)
Calm - 1SM
06:55
Overcast
Fog And Mist
43°F / 6°C 43°F / 6°C 100% 30.01 in
(1016 mb)
Calm 0.01 in
(0.25 mm)
1SM
06:35
Overcast
Fog And Mist
43°F / 6°C 41°F / 5°C 93% 30.01 in
(1016 mb)
Calm 0.01 in
(0.25 mm)
1 3/4SM
06:15
Overcast
Fog And Mist
43°F / 6°C 41°F / 5°C 93% 30.01 in
(1016 mb)
Calm - 2 1/2SM
05:55
Overcast
Fog And Mist
43°F / 6°C 41°F / 5°C 93% 30.01 in
(1016 mb)
Calm - 4SM
05:35
Overcast
Fog And Mist
41°F / 5°C 41°F / 5°C 100% 30.01 in
(1016 mb)
Calm - 2 1/2SM
05:15
Overcast
Fog And Mist
41°F / 5°C 41°F / 5°C 100% 30.01 in
(1016 mb)
Calm - 3SM
04:55
Overcast
Drizzle
41°F / 5°C 41°F / 5°C 100% 30.01 in
(1016 mb)
Calm 0.01 in
(0.25 mm)
2SM
04:35
Overcast
Fog And Mist
41°F / 5°C 41°F / 5°C 100% 30.04 in
(1017 mb)
Calm 0.01 in
(0.25 mm)
1SM
04:15
Overcast
Drizzle
41°F / 5°C 41°F / 5°C 100% 30.04 in
(1017 mb)
Calm - 1 1/4SM
03:55
Overcast
Drizzle
41°F / 5°C 41°F / 5°C 100% 30.04 in
(1017 mb)
Calm - 2 1/2SM
03:35
Overcast
Drizzle
41°F / 5°C 41°F / 5°C 100% 30.04 in
(1017 mb)
Calm - 1 3/4SM
03:15
Overcast
Fog And Mist
41°F / 5°C 41°F / 5°C 100% 30.04 in
(1017 mb)
Calm - 3/4SM
02:55
Overcast
Fog
41°F / 5°C 39°F / 4°C 93% 30.04 in
(1017 mb)
Calm - 1/2SM
02:35
Overcast
Fog
41°F / 5°C 39°F / 4°C 93% 30.04 in
(1017 mb)
Calm - 1/2SM
02:15
Overcast
Fog
41°F / 5°C 39°F / 4°C 93% 30.06 in
(1018 mb)
Calm - 1/4SM
01:55
Overcast
Fog
41°F / 5°C 39°F / 4°C 93% 30.06 in
(1018 mb)
Calm - 1/4SM
01:35
Overcast
Fog
39°F / 4°C 39°F / 4°C 100% 30.06 in
(1018 mb)
Calm - 1/4SM
01:15
Overcast
Fog
39°F / 4°C 39°F / 4°C 100% 30.06 in
(1018 mb)
Calm - 1/2SM
00:55
Overcast
Fog
39°F / 4°C 39°F / 4°C 100% 30.06 in
(1018 mb)
E 3.5 mph
(E 6 kph)
- 1/2SM
00:35
Overcast
Fog And Mist
39°F / 4°C 39°F / 4°C 100% 30.09 in
(1019 mb)
Calm - 3/4SM
00:15
Overcast
Fog
39°F / 4°C 39°F / 4°C 100% 30.09 in
(1019 mb)
Calm - 1/2SM
Time Weather Temperature Dewpoint Humidity Pressure Winds Precip Visibility


Weather for websites

WeatherForYou.com, LLC is not responsible for any damages or problems caused by this service. Current weather conditions are obtained from the closest station including government and personal stations which may have varying degrees of accuracy. Weather forecasts are derived from the NOAA NDFD. Like all things, this site belongs to Jesus Christ... He just trusts me to maintain it. If you have any questions or comments email webmaster@weatherforyou.com

Copyright © 2015, WeatherForYou.com LLC. All rights reserved.